User: anonymous   Login
Location: Napier
(39.4830°S, 176.9170°E)
Time: 11:53:01
(UTC+13:00)
Language:

COSMOS 2428 - Orbit

View from above orbital plane
View from above orbital plane
View from above satellite
View from above satellite

Ground track
Ground track

The orbit data is extracted from the following two-line orbital elements,

1 31792U 07029A   19084.85209902 -.00000333  00000-0 -15447-3 0  9992
2 31792  70.9536 136.3467 0008888  11.6025 348.5299 14.12525426605385
Epoch (UTC): 25 March 2019 20:27:01
Eccentricity: 0.0008888
inclination: 70.9536°
perigee height: 844 km
apogee height: 857 km
right ascension of ascending node: 136.3467°
argument of perigee: 11.6025°
revolutions per day: 14.12525426
mean anomaly at epoch: 348.5299°
orbit number at epoch: 60538

The dashed part of the orbit path shows where the satellite is in the earth's shadow,  

DLR